TimeEST,TemperatureF,Dew PointF,Humidity,Sea Level PressureIn,VisibilityMPH,Wind Direction,Wind SpeedMPH,Gust SpeedMPH,PrecipitationIn,Events,Conditions,WindDirDegrees,DateUTC
12:53 AM,26.1,19.9,78,29.99,10.0,North,19.6,26.5,0.00,,Overcast,360,2012-12-27 05:53:00
1:53 AM,25.0,21.0,85,30.00,2.0,North,18.4,-,0.00,Snow,Light Snow,360,2012-12-27 06:53:00
2:53 AM,25.0,21.0,85,30.02,2.5,North,18.4,-,0.00,Snow,Light Snow,360,2012-12-27 07:53:00
3:21 AM,24.8,19.4,80,30.00,3.0,North,15.0,-,0.00,Snow,Light Snow,360,2012-12-27 08:21:00
3:53 AM,25.0,19.9,81,30.04,9.0,North,16.1,-,0.00,,Overcast,360,2012-12-27 08:53:00
4:53 AM,25.0,19.9,81,30.06,7.0,North,13.8,-,0.00,,Overcast,350,2012-12-27 09:53:00
5:53 AM,23.0,19.0,85,30.07,8.0,North,11.5,-,0.00,Snow,Light Snow,350,2012-12-27 10:53:00
6:53 AM,21.9,17.1,82,30.09,10.0,North,8.1,-,0.00,,Overcast,350,2012-12-27 11:53:00
7:53 AM,21.9,17.1,82,30.11,10.0,NNW,6.9,-,N/A,,Overcast,340,2012-12-27 12:53:00
8:53 AM,21.9,17.1,82,30.12,10.0,NW,4.6,-,N/A,,Overcast,320,2012-12-27 13:53:00
9:53 AM,24.8,17.6,74,30.11,10.0,NNW,8.1,-,N/A,,Overcast,340,2012-12-27 14:53:00
10:53 AM,25.0,17.1,72,30.14,10.0,North,6.9,-,N/A,,Partly Cloudy,350,2012-12-27 15:53:00
11:53 AM,27.0,17.1,66,30.13,10.0,North,4.6,-,N/A,,Clear,360,2012-12-27 16:53:00
12:53 PM,28.9,16.0,58,30.12,10.0,NW,3.5,-,N/A,,Clear,310,2012-12-27 17:53:00
1:53 PM,30.0,15.1,54,30.11,10.0,NW,8.1,-,N/A,,Clear,320,2012-12-27 18:53:00
2:53 PM,32.0,14.0,48,30.12,10.0,NNW,5.8,-,N/A,,Clear,340,2012-12-27 19:53:00
3:53 PM,30.9,15.1,52,30.13,10.0,NNW,6.9,-,N/A,,Partly Cloudy,330,2012-12-27 20:53:00
4:53 PM,28.0,12.0,51,30.13,10.0,NNW,4.6,-,N/A,,Clear,340,2012-12-27 21:53:00
5:53 PM,25.0,10.0,53,30.14,10.0,NNW,5.8,-,N/A,,Clear,330,2012-12-27 22:53:00
6:53 PM,24.1,12.0,60,30.16,10.0,NNW,4.6,-,N/A,,Clear,330,2012-12-27 23:53:00
7:53 PM,24.1,10.9,57,30.17,10.0,WNW,5.8,-,N/A,,Clear,300,2012-12-28 00:53:00
8:53 PM,25.0,12.9,60,30.19,10.0,NW,6.9,-,N/A,,Clear,310,2012-12-28 01:53:00
9:53 PM,21.9,12.9,68,30.18,10.0,NNW,5.8,-,N/A,,Clear,340,2012-12-28 02:53:00
10:53 PM,21.2,12.2,68,30.14,10.0,North,4.6,-,N/A,,Clear,360,2012-12-28 03:53:00
11:53 PM,19.0,12.0,74,30.18,10.0,WNW,3.5,-,N/A,,Clear,290,2012-12-28 04:53:00